Bennington, VT

12:56 AM EST on December 06, 2019 (GMT -0500)
Morse State

Weather History for KDDH - September, 2019

Change the Weather History Date:

Tuesday, September 3, 2019

  Actual Average Record
Temperature  
Mean Temperature 68 °F 63 °F  
Max Temperature 75 °F 75 °F 91 °F (2018)
Min Temperature 60 °F 52 °F 43 °F (2001)
Degree Days  
Heating Degree Days 0 3  
Month to date heating degree days 6 9  
Since 1 July heating degree days 41 81  
Cooling Degree Days 3 2  
Month to date cooling degree days 4 6  
Year to date cooling degree days 355 294  
Growing Degree Days 18 (Base 50)    
Moisture  
Dew Point 59 °F    
Average Humidity 76    
Maximum Humidity 97    
Minimum Humidity 54    
Precipitation  
Precipitation 0.00 in 0.11 in 0.87 in (2017)
Month to date precipitation 0.84 0.30  
Year to date precipitation 28.31 27.84  
Sea Level Pressure  
Sea Level Pressure 30.04 in    
Wind  
Wind Speed 2 mph (SSW)    
Max Wind Speed 8 mph    
Max Gust Speed 10 mph    
Visibility 10 miles    
Events      
T = Trace of Precipitation, MM = Missing Value Source: NWS Daily Summary

Daily Weather History Graph

Daily Weather History Graph

Search for Another Location

Airport or City:

Astronomy

Sep. 03, 2019 Rise Set
Actual Time 6:19 AM EDT 7:24 PM EDT
Civil Twilight 5:50 AM EDT 7:53 PM EDT
Nautical Twilight 5:15 AM EDT 8:28 PM EDT
Astronomical Twilight 4:39 AM EDT 9:04 PM EDT
Moon 11:15 AM EDT (9/3) 10:12 PM EDT (9/3)
Length of Visible Light 14h 03m
Length of Day
13h 05m
Waxing Crescent, 24% of the Moon is Illuminated
Sep 3
Waxing Crescent
Sep 5
First Quarter
Sep 14
Full
Sep 21
Last Quarter
Sep 28
New

Hourly Weather History & Observations

Time (EDT) Temp. Dew Point Humidity Pressure Visibility Wind Dir Wind Speed Gust Speed Precip Events Conditions
12:35 AM 62.1 °F 60.1 °F 93% 30.02 in 10.0 mi SSE 3.5 mph - N/A   Mostly Cloudy
12:54 AM 63.0 °F 60.1 °F 90% 30.02 in 10.0 mi Calm Calm - N/A   Overcast
1:18 AM 61.0 °F 59.0 °F 93% 30.02 in 4.0 mi Calm Calm - N/A   Mostly Cloudy
1:41 AM 62.1 °F 59.0 °F 90% 30.02 in 9.0 mi Calm Calm - N/A   Overcast
1:54 AM 62.1 °F 60.1 °F 93% 30.02 in 10.0 mi Calm Calm - N/A   Overcast
2:26 AM 62.1 °F 59.0 °F 90% 30.03 in 10.0 mi Calm Calm - N/A   Overcast
2:44 AM 62.1 °F 60.1 °F 93% 30.02 in 10.0 mi SSW 3.5 mph - N/A   Overcast
2:54 AM 62.1 °F 59.0 °F 90% 30.00 in 10.0 mi Calm Calm - N/A   Overcast
3:09 AM 61.0 °F 59.0 °F 93% 30.01 in 10.0 mi Calm Calm - N/A   Overcast
3:32 AM 62.1 °F 59.0 °F 90% 29.99 in 10.0 mi Calm Calm - N/A   Overcast
3:54 AM 62.1 °F 59.0 °F 90% 29.98 in 8.0 mi Calm Calm - N/A   Overcast
4:34 AM 61.0 °F 59.0 °F 93% 30.00 in 8.0 mi Calm Calm - N/A   Overcast
4:54 AM 61.0 °F 59.0 °F 93% 30.00 in 5.0 mi Calm Calm - N/A   Overcast
5:54 AM 61.0 °F 59.0 °F 93% 30.04 in 9.0 mi Calm Calm - N/A   Overcast
6:10 AM 60.1 °F 57.9 °F 93% 30.05 in 10.0 mi Calm Calm - N/A   Overcast
6:30 AM 61.0 °F 57.9 °F 90% 30.05 in 10.0 mi SE 3.5 mph - N/A   Overcast
6:54 AM 61.0 °F 57.9 °F 90% 30.06 in 8.0 mi Calm Calm - N/A   Overcast
7:49 AM 60.8 °F 57.2 °F 88% 30.08 in 10.0 mi SSW 5.8 mph - N/A   Overcast
7:54 AM 61.0 °F 57.9 °F 90% 30.07 in 10.0 mi SSW 4.6 mph - N/A   Overcast
8:54 AM 62.1 °F 57.0 °F 84% 30.09 in 10.0 mi WSW 3.5 mph - N/A   Overcast
9:08 AM 62.1 °F 57.0 °F 84% 30.09 in 10.0 mi WSW 4.6 mph - N/A   Overcast
9:54 AM 64.9 °F 57.9 °F 78% 30.08 in 10.0 mi Calm Calm - N/A   Overcast
10:22 AM 66.0 °F 57.9 °F 75% 30.09 in 10.0 mi North 4.6 mph - N/A   Scattered Clouds
10:36 AM 66.9 °F 59.0 °F 76% 30.09 in 10.0 mi Calm Calm - N/A   Mostly Cloudy
10:54 AM 66.0 °F 59.0 °F 78% 30.09 in 10.0 mi Calm Calm - N/A   Mostly Cloudy
11:33 AM 68.0 °F 59.0 °F 73% 30.08 in 10.0 mi Variable 3.5 mph - N/A   Scattered Clouds
11:45 AM 69.1 °F 57.9 °F 68% 30.08 in 10.0 mi Calm Calm - N/A   Mostly Cloudy
11:54 AM 69.1 °F 59.0 °F 70% 30.07 in 10.0 mi Variable 4.6 mph - N/A   Mostly Cloudy
12:09 PM 70.0 °F 59.0 °F 68% 30.08 in 10.0 mi West 4.6 mph - N/A   Scattered Clouds
12:35 PM 69.1 °F 57.9 °F 68% 30.07 in 10.0 mi NNW 4.6 mph - N/A   Mostly Cloudy
12:54 PM 71.1 °F 60.1 °F 68% 30.06 in 10.0 mi Variable 4.6 mph - N/A   Scattered Clouds
1:54 PM 73.0 °F 57.9 °F 59% 30.05 in 10.0 mi North 3.5 mph - N/A   Partly Cloudy
2:54 PM 73.9 °F 59.0 °F 59% 30.05 in 10.0 mi Variable 6.9 mph - N/A   Mostly Cloudy
3:54 PM 73.9 °F 57.0 °F 55% 30.03 in 10.0 mi SE 3.5 mph - N/A   Clear
4:54 PM 75.0 °F 57.9 °F 55% 30.01 in 10.0 mi Calm Calm - N/A   Clear
5:54 PM 73.0 °F 57.9 °F 59% 30.00 in 10.0 mi Calm Calm - N/A   Clear
6:54 PM 68.0 °F 61.0 °F 78% 30.01 in 10.0 mi Calm Calm - N/A   Clear
7:54 PM 63.0 °F 57.9 °F 84% 30.01 in 10.0 mi South 5.8 mph - N/A   Clear
8:54 PM 62.1 °F 57.0 °F 84% 30.02 in 10.0 mi Calm Calm - N/A   Clear
9:54 PM 62.1 °F 57.9 °F 86% 30.02 in 10.0 mi Calm Calm - N/A   Mostly Cloudy
10:54 PM 61.0 °F 57.0 °F 87% 30.01 in 10.0 mi Calm Calm - N/A   Partly Cloudy
11:54 PM 61.0 °F 57.9 °F 90% 29.99 in 10.0 mi Calm Calm - N/A   Clear